OpenBCM V1.13 (Linux)

Packet Radio Mailbox

DB0FHN

[JN59NK Nuernberg]

 Login: GUEST





  
LU9DCE > KEP      03.06.19 20:34l 245 Lines 12073 Bytes #999 (0) @ WW
BID : 26003_LU9DCE
Read: DF7EAV DJ6UX GUEST
Subj: TLE 03 06
Path: DB0FHN<DB0BLO<DB0ERF<DB0RES<IR2UBX<IW2OHX<UA6ADV<VE2PKT<N3HYM<LU9DCE
Sent: 190603/1801Z @:LU9DCE.TOR.BA.ARG.SOAM #:26003 LinBPQ6.0.18

            __    _  _  ___  ____   ___  ____    ____  ____  ____
           (  )  / )( \/ _ \(    \ / __)(  __)  (  _ \(  _ \/ ___)
           / (_/\) \/ (\__  )) D (( (__  ) _)    ) _ ( ) _ (\___ \
           \____/\____/(___/(____/ \___)(____)  (____/(____/(____/
               ESTACION DE PACKET RADIO - BUENOS AIRES (GF05OM)
                   BOLETINES INFORMATIVOS PROGRAMADOS (BIP)
                  SLACKWARE LINUX - HELLOCODELINUX@GMAIL.COM

+----------------------------------------------------------------------------+
OSCAR 7
1  7530U 74089B   19153.90478965 -.00000047  00000-0 -15029-4 0  9994
2  7530 101.7426 121.7282 0012407  19.5498  42.1375 12.53638314 38549
OSCAR 11 (UoSAT 2)
1 14781U 84021B   19154.11499118  .00000062  00000-0  13770-4 0  9990
2 14781  97.6117 179.5695 0008934  21.1264 339.0318 14.83087642896458
OSCAR 19 (LUSAT)
1 20442U 90005G   19154.09766954 -.00000023  00000-0  78169-5 0  9994
2 20442  98.6479  96.1245 0011444 189.9861 170.1097 14.32925978534142
EYESAT A
1 22825U 93061C   19154.52706311 -.00000016  00000-0  11788-4 0  9990
2 22825  98.9025 142.8186 0009250  48.1959 312.0011 14.30059624339788
ITAMSAT
1 22826U 93061D   19153.90270934 -.00000018 +00000-0 +10964-4 0  9996
2 22826 098.8964 142.1735 0009628 039.5883 320.6000 14.30393070339646
RADIO ROSTO
1 23439U 94085A   19153.90658079 -.00000044 +00000-0 -56624-4 0  9997
2 23439 064.8135 141.6511 0146324 116.3116 245.2921 11.27568155006112
JAS 2
1 24278U 96046B   19153.87325449 -.00000025  00000-0  13559-4 0  9994
2 24278  98.5347 309.4313 0349294 281.0853  75.1202 13.53091367125667
TECHSAT 1B
1 25397U 98043D   19153.87657864 -.00000029  00000-0  65346-5 0  9991
2 25397  98.6881  94.2130 0002431  85.1124 275.0332 14.23665986 85621
ISS (ZARYA)
1 25544U 98067A   19154.33214331 -.00000033  00000-0  72788-5 0  9994
2 25544  51.6450  70.0584 0007587   8.8723  71.1071 15.51163107173101
PCSAT
1 26931U 01043C   19153.90979375 -.00000018 +00000-0 +24834-4 0  9992
2 26931 067.0525 044.4059 0006499 279.8728 080.1639 14.30543293922649
SAUDISAT 1C
1 27607U 02058C   19154.29734533 -.00000055  00000-0  13265-4 0  9995
2 27607  64.5550  96.6619 0081826 259.5028  99.6847 14.75549602884761
CUTE-1
1 27844U 03031E   19153.89362296  .00000040  00000-0  37518-4 0  9998
2 27844  98.6839 162.3434 0011102  78.5729 281.6695 14.22178968826041
CUBESAT XI 4
1 27848U 03031J   19153.81088712 +.00000028 +00000-0 +32346-4 0  9992
2 27848 098.6917 162.7585 0011006 088.9631 271.2808 14.21773832825852
MOZHAYETS 4
1 27939U 03042A   19154.49457346  .00000044  00000-0  16500-4 0  9995
2 27939  98.0375 290.6084 0014168 113.6970 246.5730 14.66782413838312
CUBESAT XI 5
1 28895U 05043F   19153.92175207 +.00000080 +00000-0 +24183-4 0  9996
2 28895 097.9568 297.1956 0017727 045.3786 314.8859 14.63664442724948
CUTE-1.7+APD II
1 32785U 08021C   19154.49104854  .00000143  00000-0  21048-4 0  9998
2 32785  97.5491 154.9227 0011991 319.0045  41.0270 14.88304128601421
DELFI C3
1 32789U 08021G   19153.68163127  .00001295  00000-0  90607-4 0  9996
2 32789  97.4655 203.8297 0012576 172.5351 187.6066 15.06918023604552
SEEDS
1 32791U 08021J   19154.53507211  .00000127  00000-0  18272-4 0  9991
2 32791  97.5279 160.9225 0011777 291.2820  68.7141 14.90811719601853
YUBELEINY
1 32953U 08025A   19154.43311623  .00000020  00000-0  75656-4 0  9995
2 32953  82.5004 154.2546 0019576 158.5721 201.6187 12.43089778500411
PRISM (HITOMI)
1 33493U 09002B   19153.81715939 -.00000116  00000-0 -45111-5 0  9992
2 33493  98.1230  74.1697 0013688 233.7630 126.2325 14.96641074562771
KKS-1 (KISEKI)
1 33499U 09002H   19153.87338044 +.00000077 +00000-0 +19393-4 0  9998
2 33499 098.3511 352.0764 0007892 255.2660 104.7673 14.75437879556465
SWISSCUBE
1 35932U 09051B   19154.13756008  .00000105  00000-0  34740-4 0  9995
2 35932  98.5864 319.6569 0007091 204.5049 155.5812 14.56280425514514
BEESAT
1 35933U 09051C   19154.14148673  .00000082  00000-0  29605-4 0  9998
2 35933  98.5892 321.4119 0005045 216.2932 143.7923 14.56370113514624
ITUPSAT 1
1 35935U 09051E   19154.39642703  .00000046  00000-0  21712-4 0  9991
2 35935  98.6003 321.9134 0007403 215.4922 144.5783 14.55530714514417
XIWANG-1 (HOPE-1)
1 36122U 09072B   19154.15479133 -.00000025  00000-0  44891-4 0  9993
2 36122 100.0720 157.2642 0008423  24.7583 335.3928 13.16349782454830
TISAT 1
1 36799U 10035E   19153.91246057 +.00000301 +00000-0 +36488-4 0  9993
2 36799 098.1537 305.5436 0013344 133.7520 226.4804 14.91092767482210
JUGNU
1 37839U 11058B   19154.05684934  .00000296  00000-0  15884-4 0  9991
2 37839  19.9616  69.5846 0019083 154.6076 281.9856 14.12651547395048
SRMSAT
1 37841U 11058D   19154.19875022  .00000292  00000-0  15201-4 0  9998
2 37841  19.9710 125.1788 0011887  27.5277 275.4600 14.10632850394504
M-CUBED/EXP-1 PRIME
1 37855U 11061F   19154.18021552  .00000820  00000-0  48920-4 0  9998
2 37855 101.7165  41.8174 0173767 122.7607 239.0483 15.05374538414449
HORYU 2
1 38340U 12025D   19154.04833454  .00000143  00000-0  28881-4 0  9998
2 38340  98.3301 192.1688 0011853 167.5828 192.5675 14.75713379378857
STRAND 1
1 39090U 13009E   19153.81971703 +.00000032 +00000-0 +26596-4 0  9996
2 39090 098.4899 000.0442 0008798 343.9856 016.1050 14.35085146328092
SOMP
1 39134U 13015E   19153.89973298  .00000789  00000-0  45489-4 0  9992
2 39134  64.8640  71.5987 0029091 306.7255  53.1201 15.20119448338197
BEESAT 3
1 39135U 13015F   19153.92571631 +.00000791 +00000-0 +49138-4 0  9990
2 39135 064.8680 089.5912 0018703 324.3921 035.5956 15.17430667337468
BEESAT 2
1 39136U 13015G   19153.89085449  .00000550  00000-0  37741-4 0  9994
2 39136  64.8690  93.4787 0018568 304.3880  55.5489 15.16863222337778
CUBEBUG 1
1 39153U 13018D   19154.48940858  .00000119  00000-0  22438-4 0  9994
2 39153  97.9773 252.7006 0015645 245.5995 114.3585 14.80561150329560
ZACUBE
1 39417U 13066B   19154.50447267  .00000154  00000-0  25542-4 0  9997
2 39417  97.5628 168.8595 0060579  84.0366 276.7747 14.81107859298798
TRITON 1
1 39427U 13066M   19153.91276166 +.00000145 +00000-0 +31284-4 0  9990
2 39427 097.6749 132.2671 0112850 215.4098 143.9579 14.67833200295836
GOMX 1
1 39430U 13066Q   19154.46860922  .00000159  00000-0  38173-4 0  9993
2 39430  97.7447 112.0238 0150269 302.6973  55.9803 14.59246480294388
HUMSAT D
1 39433U 13066T   19154.12350019  .00000191  00000-0  24006-4 0  9996
2 39433  97.5548 202.2640 0030500 355.8659   4.2304 14.92177600300752
CUBEBUG 2
1 39440U 13066AA  19153.88618380  .00000153  00000-0  28066-4 0  9992
2 39440  97.6017 153.2574 0081360 135.5088 225.2694 14.75846189297648
FUNCUBE 1
1 39444U 13066AE  19154.51341595  .00000189  00000-0  29436-4 0  9999
2 39444  97.5610 170.7983 0059688  78.1427 282.6473 14.81924871297683
UWE-3
1 39446U 13066AG  19153.91742038 +.00000149 +00000-0 +26335-4 0  9992
2 39446 097.5812 160.2898 0071559 111.0706 249.8176 14.78380505296349
SPROUT
1 39770U 14029E   19154.29262360  .00000534  00000-0  65264-4 0  9991
2 39770  97.8832 257.6875 0009697 128.7991 231.4089 14.87320891272543
UNISAT 6
1 40012U 14033C   19154.53736283  .00000133  00000-0  27173-4 0  9996
2 40012  97.7596  21.8009 0059106 145.5303 214.9762 14.73971006266456
DUCHIFAT 1
1 40021U 14033M   19153.83625742  .00000158  00000-0  21951-4 0  9990
2 40021  97.9243  78.3775 0014418 100.6799 259.6043 14.90614991269189
QB50P1
1 40025U 14033R   19154.31069444  .00000198  00000-0  27104-4 0  9999
2 40025  97.9067  74.0192 0013852 107.6722 252.6008 14.88933293269031
CHUBUSAT 1
1 40300U 14070C   19154.20507642  .00000680  00000-0  32568-4 0  9997
2 40300  97.3255 228.7770 0021123 107.8699 309.7397 15.22064024253668
NUDT-PHONESAT
1 40900U 15049B   19154.40071997  .00001880  00000-0  83553-4 0  9994
2 40900  97.4376 163.8857 0011141 236.3369 231.0686 15.22723184205333
ZDPS 2A
1 40901U 15049C   19154.52446495  .00000623  00000-0  34212-4 0  9999
2 40901  97.4590 160.5681 0011759 255.3105 260.6431 15.17696817204932
ZDPS 2B
1 40902U 15049D   19154.54024355  .00001211  00000-0  63720-4 0  9999
2 40902  97.4537 158.1136 0011705 252.8445 221.5749 15.17504902204911
XW-2A
1 40903U 15049E   19154.53563317  .00001687  00000-0  41811-4 0  9999
2 40903  97.3396 197.2139 0012901 193.3097 306.5207 15.41786521207914
KAITUO 1A
1 40904U 15049F   19154.48517872  .00000464  00000-0  28072-4 0  9995
2 40904  97.4661 156.7546 0012871 261.6137 221.4081 15.15348654204692
OBJECT G
1 40905U 15049G   19154.49391997  .00000254  00000-0  17471-4 0  9993
2 40905  97.4704 154.3379 0013891 254.9996 256.5177 15.14276303204572
XW-2C
1 40906U 15049H   19154.49444919  .00000558  00000-0  32774-4 0  9997
2 40906  97.4668 156.8245 0013163 251.7028 259.5391 15.15652693204699
XW-2D
1 40907U 15049J   19154.53373132  .00000805  00000-0  45503-4 0  9990
2 40907  97.4651 156.5411 0012445 248.3172 229.0276 15.15840484204712
LILACSAT 2
1 40908U 15049K   19154.52767118  .00000498  00000-0  31193-4 0  9999
2 40908  97.4778 155.4168 0014331 254.3776 223.9743 15.13790265204512
XW-2F
1 40910U 15049M   19154.51686929  .00000735  00000-0  40258-4 0  9997
2 40910  97.4613 158.4716 0013163 240.1993 275.0111 15.17258407204711
XW-2B
1 40911U 15049N   19154.56550156  .00000413  00000-0  25105-4 0  9992
2 40911  97.4666 157.2169 0012389 249.0211 227.2138 15.15768135204618
KAITUO 1B
1 40912U 15049P   19154.50433505  .00000918  00000-0  46331-4 0  9999
2 40912  97.4502 162.0557 0013551 221.3202 289.9922 15.19564813205009
TIANWANG 1C (TW-1C)
1 40926U 15051B   19154.54168943  .00009494  00000-0  14057-3 0  9999
2 40926  97.1376 200.7391 0010131  73.1739  62.0054 15.55426694207805
